Data supplied by UK-AIR on 14/3/2017
All Data GMT hour ending 
Status: R =Ratified P=Provisional,P*=As supplied
,,Glasgow Kerbside,,,,,,,,,,,,,,,,,,,,,,,
Date,time,"Nitric oxide",status,unit,"Nitrogen dioxide",status,unit,"Nitrogen oxides as nitrogen dioxide",status,unit
 
01-01-2016,01:00,68.82269,R,ugm-3,59.22885,R,ugm-3,164.75550,R,ugm-3
01-01-2016,02:00,27.58820,R,ugm-3,37.45121,R,ugm-3,79.75253,R,ugm-3
01-01-2016,03:00,27.36607,R,ugm-3,29.12403,R,ugm-3,71.08476,R,ugm-3
01-01-2016,04:00,39.95882,R,ugm-3,47.36067,R,ugm-3,108.63000,R,ugm-3
01-01-2016,05:00,46.41110,R,ugm-3,42.01619,R,ugm-3,113.17888,R,ugm-3
01-01-2016,06:00,31.68204,R,ugm-3,35.27033,R,ugm-3,83.84878,R,ugm-3
01-01-2016,07:00,14.06081,R,ugm-3,22.02818,R,ugm-3,43.58779,R,ugm-3
01-01-2016,08:00,8.76602,R,ugm-3,27.56678,R,ugm-3,41.00783,R,ugm-3
01-01-2016,09:00,18.06589,R,ugm-3,37.13788,R,ugm-3,64.83853,R,ugm-3
01-01-2016,10:00,15.30718,R,ugm-3,34.23901,R,ugm-3,57.70969,R,ugm-3
01-01-2016,11:00,16.24141,R,ugm-3,29.47975,R,ugm-3,54.38289,R,ugm-3
01-01-2016,12:00,25.23007,R,ugm-3,32.12761,R,ugm-3,70.81318,R,ugm-3
01-01-2016,13:00,19.97925,R,ugm-3,25.37792,R,ugm-3,56.01234,R,ugm-3
01-01-2016,14:00,17.26482,R,ugm-3,23.76903,R,ugm-3,50.24138,R,ugm-3
01-01-2016,15:00,20.11271,R,ugm-3,24.29066,R,ugm-3,55.12973,R,ugm-3
01-01-2016,16:00,14.10572,R,ugm-3,23.38509,R,ugm-3,45.01356,R,ugm-3
01-01-2016,17:00,12.99344,R,ugm-3,25.29425,R,ugm-3,45.21724,R,ugm-3
01-01-2016,18:00,27.85564,R,ugm-3,24.57132,R,ugm-3,67.28271,R,ugm-3
01-01-2016,19:00,26.56468,R,ugm-3,34.35854,R,ugm-3,75.09049,R,ugm-3
01-01-2016,20:00,22.07066,R,ugm-3,23.18954,R,ugm-3,57.03075,R,ugm-3
01-01-2016,21:00,22.29299,R,ugm-3,31.60693,R,ugm-3,65.78904,R,ugm-3
01-01-2016,22:00,40.13656,R,ugm-3,44.91554,R,ugm-3,106.45740,R,ugm-3
01-01-2016,23:00,14.99566,R,ugm-3,24.39681,R,ugm-3,47.38984,R,ugm-3
01-01-2016,24:00,31.86010,R,ugm-3,35.81204,R,ugm-3,84.66351,R,ugm-3
02-01-2016,01:00,14.73727,R,ugm-3,31.37074,R,ugm-3,53.96756,R,ugm-3
02-01-2016,02:00,7.57194,R,ugm-3,20.20939,R,ugm-3,31.81954,R,ugm-3
02-01-2016,03:00,7.25211,R,ugm-3,19.25362,R,ugm-3,30.37337,R,ugm-3
02-01-2016,04:00,10.35384,R,ugm-3,20.32844,R,ugm-3,36.20410,R,ugm-3
02-01-2016,05:00,16.60094,R,ugm-3,22.07216,R,ugm-3,47.52658,R,ugm-3
02-01-2016,06:00,11.88303,R,ugm-3,23.13647,R,ugm-3,41.35686,R,ugm-3
02-01-2016,07:00,25.99373,R,ugm-3,35.06043,R,ugm-3,74.91693,R,ugm-3
02-01-2016,08:00,87.37368,R,ugm-3,37.49026,R,ugm-3,171.46136,R,ugm-3
02-01-2016,09:00,94.49451,R,ugm-3,53.69105,R,ugm-3,198.58061,R,ugm-3
02-01-2016,10:00,92.04825,R,ugm-3,61.64561,R,ugm-3,202.78429,R,ugm-3
02-01-2016,11:00,149.80167,R,ugm-3,69.09337,R,ugm-3,298.78605,R,ugm-3
02-01-2016,12:00,118.25994,R,ugm-3,95.96495,R,ugm-3,277.29433,R,ugm-3
02-01-2016,13:00,247.87842,R,ugm-3,92.54588,R,ugm-3,472.62083,R,ugm-3
02-01-2016,14:00,277.32281,R,ugm-3,107.12869,R,ugm-3,532.35107,R,ugm-3
02-01-2016,15:00,291.60845,R,ugm-3,102.64866,R,ugm-3,549.77538,R,ugm-3
02-01-2016,16:00,379.33168,R,ugm-3,125.90753,R,ugm-3,707.54133,R,ugm-3
02-01-2016,17:00,284.96845,R,ugm-3,118.38901,R,ugm-3,555.33454,R,ugm-3
02-01-2016,18:00,335.16417,R,ugm-3,97.42466,R,ugm-3,611.33588,R,ugm-3
02-01-2016,19:00,279.59477,R,ugm-3,92.66158,R,ugm-3,521.36758,R,ugm-3
02-01-2016,20:00,176.53754,R,ugm-3,73.52415,R,ugm-3,344.21127,R,ugm-3
02-01-2016,21:00,203.05576,R,ugm-3,111.37348,R,ugm-3,422.72131,R,ugm-3
02-01-2016,22:00,171.99425,R,ugm-3,85.37161,R,ugm-3,349.09245,R,ugm-3
02-01-2016,23:00,254.91164,R,ugm-3,96.33836,R,ugm-3,487.19742,R,ugm-3
02-01-2016,24:00,204.10443,R,ugm-3,86.23941,R,ugm-3,399.19517,R,ugm-3
03-01-2016,01:00,130.12790,R,ugm-3,98.60468,R,ugm-3,298.13134,R,ugm-3
03-01-2016,02:00,58.01567,R,ugm-3,46.91108,R,ugm-3,135.86719,R,ugm-3
03-01-2016,03:00,39.44898,R,ugm-3,42.36188,R,ugm-3,102.84947,R,ugm-3
03-01-2016,04:00,33.63875,R,ugm-3,36.82997,R,ugm-3,88.40866,R,ugm-3
03-01-2016,05:00,26.43029,R,ugm-3,27.40804,R,ugm-3,67.93391,R,ugm-3
03-01-2016,06:00,14.24230,R,ugm-3,18.29832,R,ugm-3,40.13620,R,ugm-3
03-01-2016,07:00,19.17849,R,ugm-3,23.54383,R,ugm-3,52.95043,R,ugm-3
03-01-2016,08:00,32.15321,R,ugm-3,27.31146,R,ugm-3,76.61236,R,ugm-3
03-01-2016,09:00,33.50778,R,ugm-3,43.26792,R,ugm-3,94.64580,R,ugm-3
03-01-2016,10:00,67.62674,R,ugm-3,38.95476,R,ugm-3,142.64764,R,ugm-3
03-01-2016,11:00,61.59822,R,ugm-3,29.01119,R,ugm-3,123.46048,R,ugm-3
03-01-2016,12:00,105.89671,R,ugm-3,41.63178,R,ugm-3,204.00446,R,ugm-3
03-01-2016,13:00,108.95446,R,ugm-3,39.11254,R,ugm-3,206.17372,R,ugm-3
03-01-2016,14:00,105.67812,R,ugm-3,38.17063,R,ugm-3,200.20815,R,ugm-3
03-01-2016,15:00,190.12438,R,ugm-3,80.28484,R,ugm-3,371.80482,R,ugm-3
03-01-2016,16:00,148.92793,R,ugm-3,66.50097,R,ugm-3,294.85395,R,ugm-3
03-01-2016,17:00,105.45953,R,ugm-3,55.38743,R,ugm-3,217.08979,R,ugm-3
03-01-2016,18:00,108.25566,R,ugm-3,66.69318,R,ugm-3,232.68288,R,ugm-3
03-01-2016,19:00,74.31102,R,ugm-3,64.57030,R,ugm-3,178.51227,R,ugm-3
03-01-2016,20:00,110.96417,R,ugm-3,72.23560,R,ugm-3,242.37830,R,ugm-3
03-01-2016,21:00,109.95916,R,ugm-3,84.15000,R,ugm-3,252.75170,R,ugm-3
03-01-2016,22:00,114.76501,R,ugm-3,83.96783,R,ugm-3,259.93839,R,ugm-3
03-01-2016,23:00,106.28992,R,ugm-3,82.04673,R,ugm-3,245.02233,R,ugm-3
03-01-2016,24:00,70.42287,R,ugm-3,68.70178,R,ugm-3,176.68201,R,ugm-3
04-01-2016,01:00,46.89058,R,ugm-3,47.42681,R,ugm-3,119.32470,R,ugm-3
04-01-2016,02:00,14.32940,R,ugm-3,23.67930,R,ugm-3,45.65074,R,ugm-3
04-01-2016,03:00,15.46496,R,ugm-3,21.57683,R,ugm-3,45.28943,R,ugm-3
04-01-2016,04:00,20.35843,R,ugm-3,32.92082,R,ugm-3,64.13664,R,ugm-3
04-01-2016,05:00,30.66799,R,ugm-3,36.30021,R,ugm-3,83.32380,R,ugm-3
04-01-2016,06:00,33.85734,R,ugm-3,45.85123,R,ugm-3,97.76509,R,ugm-3
04-01-2016,07:00,83.74746,R,ugm-3,72.88155,R,ugm-3,201.29254,R,ugm-3
04-01-2016,08:00,113.71665,R,ugm-3,76.28676,R,ugm-3,250.64986,R,ugm-3
04-01-2016,09:00,129.40020,R,ugm-3,71.49308,R,ugm-3,269.90395,R,ugm-3
04-01-2016,10:00,160.54840,R,ugm-3,68.41204,R,ugm-3,314.58282,R,ugm-3
04-01-2016,11:00,158.93221,R,ugm-3,94.62046,R,ugm-3,338.31312,R,ugm-3
04-01-2016,12:00,226.16605,R,ugm-3,106.98955,R,ugm-3,453.77266,R,ugm-3
04-01-2016,13:00,198.59947,R,ugm-3,79.08713,R,ugm-3,383.60208,R,ugm-3
04-01-2016,14:00,227.12678,R,ugm-3,102.12654,R,ugm-3,450.38275,R,ugm-3
04-01-2016,15:00,248.70819,R,ugm-3,87.34148,R,ugm-3,468.68873,R,ugm-3
04-01-2016,16:00,253.60104,R,ugm-3,111.50066,R,ugm-3,500.35016,R,ugm-3
04-01-2016,17:00,200.56522,R,ugm-3,77.36110,R,ugm-3,384.89015,R,ugm-3
04-01-2016,18:00,199.86642,R,ugm-3,78.16101,R,ugm-3,384.61857,R,ugm-3
04-01-2016,19:00,169.46036,R,ugm-3,79.69722,R,ugm-3,339.53282,R,ugm-3
04-01-2016,20:00,125.64302,R,ugm-3,84.10219,R,ugm-3,276.75214,R,ugm-3
04-01-2016,21:00,89.12083,R,ugm-3,46.81178,R,ugm-3,183.46182,R,ugm-3
04-01-2016,22:00,91.52376,R,ugm-3,39.66955,R,ugm-3,180.00402,R,ugm-3
04-01-2016,23:00,89.95091,R,ugm-3,50.14910,R,ugm-3,188.07190,R,ugm-3
04-01-2016,24:00,65.26778,R,ugm-3,49.21580,R,ugm-3,149.29166,R,ugm-3
05-01-2016,01:00,35.82287,R,ugm-3,34.11454,R,ugm-3,89.04218,R,ugm-3
05-01-2016,02:00,19.27993,R,ugm-3,28.20173,R,ugm-3,57.76388,R,ugm-3
05-01-2016,03:00,8.78099,R,ugm-3,14.73964,R,ugm-3,28.20364,R,ugm-3
05-01-2016,04:00,7.12115,R,ugm-3,16.67461,R,ugm-3,27.59355,R,ugm-3
05-01-2016,05:00,10.83436,R,ugm-3,17.21872,R,ugm-3,33.83117,R,ugm-3
05-01-2016,06:00,58.36553,R,ugm-3,44.95092,R,ugm-3,134.44349,R,ugm-3
05-01-2016,07:00,107.29462,R,ugm-3,63.35395,R,ugm-3,227.87007,R,ugm-3
05-01-2016,08:00,149.01524,R,ugm-3,58.23132,R,ugm-3,286.71818,R,ugm-3
05-01-2016,09:00,215.41869,R,ugm-3,59.39938,R,ugm-3,389.70343,R,ugm-3
05-01-2016,10:00,288.68135,R,ugm-3,76.42350,R,ugm-3,519.06206,R,ugm-3
05-01-2016,11:00,313.18986,R,ugm-3,77.08331,R,ugm-3,557.30107,R,ugm-3
05-01-2016,12:00,258.45023,R,ugm-3,81.89516,R,ugm-3,478.17998,R,ugm-3
05-01-2016,13:00,327.69377,R,ugm-3,109.96349,R,ugm-3,612.42027,R,ugm-3
05-01-2016,14:00,395.80166,R,ugm-3,116.78968,R,ugm-3,723.67709,R,ugm-3
05-01-2016,15:00,387.45691,R,ugm-3,103.07610,R,ugm-3,697.16841,R,ugm-3
05-01-2016,16:00,385.57847,R,ugm-3,104.26137,R,ugm-3,695.47345,R,ugm-3
05-01-2016,17:00,435.99309,R,ugm-3,84.04577,R,ugm-3,752.55919,R,ugm-3
05-01-2016,18:00,402.44166,R,ugm-3,117.72728,R,ugm-3,734.79589,R,ugm-3
05-01-2016,19:00,378.76323,R,ugm-3,88.06632,R,ugm-3,668.82850,R,ugm-3
05-01-2016,20:00,278.93931,R,ugm-3,94.75147,R,ugm-3,522.45245,R,ugm-3
05-01-2016,21:00,174.52845,R,ugm-3,66.63867,R,ugm-3,334.24523,R,ugm-3
05-01-2016,22:00,189.81879,R,ugm-3,66.99105,R,ugm-3,358.04247,R,ugm-3
05-01-2016,23:00,215.89983,R,ugm-3,84.96759,R,ugm-3,416.00939,R,ugm-3
05-01-2016,24:00,173.56710,R,ugm-3,73.19711,R,ugm-3,339.32962,R,ugm-3
06-01-2016,01:00,99.83847,R,ugm-3,62.15306,R,ugm-3,215.23658,R,ugm-3
06-01-2016,02:00,23.06632,R,ugm-3,34.59968,R,ugm-3,69.96754,R,ugm-3
06-01-2016,03:00,33.46381,R,ugm-3,33.97939,R,ugm-3,85.28985,R,ugm-3
06-01-2016,04:00,28.00344,R,ugm-3,33.87755,R,ugm-3,76.81556,R,ugm-3
06-01-2016,05:00,34.59979,R,ugm-3,51.01785,R,ugm-3,104.07012,R,ugm-3
06-01-2016,06:00,95.23697,R,ugm-3,40.89212,R,ugm-3,186.92010,R,ugm-3
06-01-2016,07:00,161.64104,R,ugm-3,84.22937,R,ugm-3,332.07550,R,ugm-3
06-01-2016,08:00,217.77827,R,ugm-3,62.08644,R,ugm-3,396.00847,R,ugm-3
06-01-2016,09:00,279.68177,R,ugm-3,78.69746,R,ugm-3,507.53686,R,ugm-3
06-01-2016,10:00,257.35822,R,ugm-3,86.28196,R,ugm-3,480.89239,R,ugm-3
06-01-2016,11:00,290.21054,R,ugm-3,123.84346,R,ugm-3,568.82675,R,ugm-3
06-01-2016,12:00,247.39759,R,ugm-3,107.04597,R,ugm-3,486.38365,R,ugm-3
06-01-2016,13:00,216.55498,R,ugm-3,92.30203,R,ugm-3,424.34837,R,ugm-3
06-01-2016,14:00,190.08072,R,ugm-3,97.91187,R,ugm-3,389.36492,R,ugm-3
06-01-2016,15:00,206.55070,R,ugm-3,82.62430,R,ugm-3,399.33096,R,ugm-3
06-01-2016,16:00,217.90924,R,ugm-3,108.53151,R,ugm-3,442.65434,R,ugm-3
06-01-2016,17:00,245.86840,R,ugm-3,71.15217,R,ugm-3,448.14513,R,ugm-3
06-01-2016,18:00,262.60062,R,ugm-3,93.70150,R,ugm-3,496.35017,R,ugm-3
06-01-2016,19:00,176.18830,R,ugm-3,84.02569,R,ugm-3,354.17731,R,ugm-3
06-01-2016,20:00,151.98569,R,ugm-3,81.67762,R,ugm-3,314.71909,R,ugm-3
06-01-2016,21:00,96.54788,R,ugm-3,75.89948,R,ugm-3,223.93749,R,ugm-3
06-01-2016,22:00,110.17806,R,ugm-3,60.35611,R,ugm-3,229.29345,R,ugm-3
06-01-2016,23:00,87.59195,R,ugm-3,49.63033,R,ugm-3,183.93612,R,ugm-3
06-01-2016,24:00,83.48522,R,ugm-3,48.74102,R,ugm-3,176.74990,R,ugm-3
07-01-2016,01:00,35.29901,R,ugm-3,31.84376,R,ugm-3,85.96815,R,ugm-3
07-01-2016,02:00,8.85417,R,ugm-3,23.93940,R,ugm-3,37.51560,R,ugm-3
07-01-2016,03:00,7.47039,R,ugm-3,18.51204,R,ugm-3,29.96648,R,ugm-3
07-01-2016,04:00,8.60637,R,ugm-3,17.51659,R,ugm-3,30.71284,R,ugm-3
07-01-2016,05:00,11.79509,R,ugm-3,22.25433,R,ugm-3,40.33988,R,ugm-3
07-01-2016,06:00,30.40574,R,ugm-3,33.78766,R,ugm-3,80.40915,R,ugm-3
07-01-2016,07:00,74.39833,R,ugm-3,42.87634,R,ugm-3,156.95218,R,ugm-3
07-01-2016,08:00,149.27718,R,ugm-3,65.15170,R,ugm-3,294.04018,R,ugm-3
07-01-2016,09:00,288.63801,R,ugm-3,99.06750,R,ugm-3,541.63960,R,ugm-3
07-01-2016,10:00,418.95529,R,ugm-3,131.66176,R,ugm-3,774.05091,R,ugm-3
07-01-2016,11:00,335.55707,R,ugm-3,125.63595,R,ugm-3,640.14961,R,ugm-3
07-01-2016,12:00,131.10339,R,ugm-3,67.11967,R,ugm-3,268.14206,R,ugm-3
07-01-2016,13:00,33.20188,R,ugm-3,46.92367,R,ugm-3,97.83250,R,ugm-3
07-01-2016,14:00,50.58924,R,ugm-3,67.31522,R,ugm-3,144.88431,R,ugm-3
07-01-2016,15:00,48.05535,R,ugm-3,66.79358,R,ugm-3,140.47743,R,ugm-3
07-01-2016,16:00,43.46809,R,ugm-3,60.87774,R,ugm-3,127.52789,R,ugm-3
07-01-2016,17:00,26.12470,R,ugm-3,52.28345,R,ugm-3,92.34076,R,ugm-3
07-01-2016,18:00,43.24982,R,ugm-3,56.33125,R,ugm-3,122.64671,R,ugm-3
07-01-2016,19:00,26.25567,R,ugm-3,51.06614,R,ugm-3,91.32427,R,ugm-3
07-01-2016,20:00,33.46381,R,ugm-3,58.45461,R,ugm-3,109.76507,R,ugm-3
07-01-2016,21:00,59.32658,R,ugm-3,56.76587,R,ugm-3,147.73202,R,ugm-3
07-01-2016,22:00,36.08501,R,ugm-3,52.46944,R,ugm-3,107.79902,R,ugm-3
07-01-2016,23:00,79.11686,R,ugm-3,67.43905,R,ugm-3,188.74988,R,ugm-3
07-01-2016,24:00,84.75248,R,ugm-3,80.76440,R,ugm-3,210.71638,R,ugm-3
08-01-2016,01:00,12.40689,R,ugm-3,34.03931,R,ugm-3,53.06295,R,ugm-3
08-01-2016,02:00,9.14520,R,ugm-3,40.48763,R,ugm-3,54.51008,R,ugm-3
08-01-2016,03:00,31.97890,R,ugm-3,55.71447,R,ugm-3,104.74810,R,ugm-3
08-01-2016,04:00,20.31415,R,ugm-3,44.85434,R,ugm-3,76.00227,R,ugm-3
08-01-2016,05:00,70.11697,R,ugm-3,68.08596,R,ugm-3,175.59714,R,ugm-3
08-01-2016,06:00,147.61702,R,ugm-3,57.32432,R,ugm-3,283.66726,R,ugm-3
08-01-2016,07:00,179.15905,R,ugm-3,89.97978,R,ugm-3,364.68650,R,ugm-3
08-01-2016,08:00,249.23268,R,ugm-3,59.68865,R,ugm-3,441.84009,R,ugm-3
08-01-2016,09:00,285.88553,R,ugm-3,68.98196,R,ugm-3,507.33366,R,ugm-3
08-01-2016,10:00,322.97555,R,ugm-3,113.40169,R,ugm-3,608.62396,R,ugm-3
08-01-2016,11:00,333.28573,R,ugm-3,118.60990,R,ugm-3,629.64090,R,ugm-3
08-01-2016,12:00,441.58505,R,ugm-3,148.08296,R,ugm-3,825.17060,R,ugm-3
08-01-2016,13:00,352.46422,R,ugm-3,154.90007,R,ugm-3,695.33767,R,ugm-3
08-01-2016,14:00,338.79038,R,ugm-3,128.54295,R,ugm-3,648.01429,R,ugm-3
08-01-2016,15:00,334.24678,R,ugm-3,127.30604,R,ugm-3,639.81062,R,ugm-3
08-01-2016,16:00,322.88855,R,ugm-3,102.55160,R,ugm-3,597.64047,R,ugm-3
08-01-2016,17:00,359.58505,R,ugm-3,135.16785,R,ugm-3,686.52391,R,ugm-3
08-01-2016,18:00,447.17732,R,ugm-3,150.08535,R,ugm-3,835.74768,R,ugm-3
08-01-2016,19:00,440.84228,R,ugm-3,157.29022,R,ugm-3,833.23896,R,ugm-3
08-01-2016,20:00,375.79278,R,ugm-3,152.68970,R,ugm-3,728.89726,R,ugm-3
08-01-2016,21:00,364.87142,R,ugm-3,149.50347,R,ugm-3,708.96518,R,ugm-3
08-01-2016,22:00,287.32740,R,ugm-3,121.82243,R,ugm-3,562.38497,R,ugm-3
08-01-2016,23:00,289.11853,R,ugm-3,131.61921,R,ugm-3,574.92810,R,ugm-3
08-01-2016,24:00,262.29472,R,ugm-3,114.10310,R,ugm-3,516.28272,R,ugm-3
09-01-2016,01:00,187.85253,R,ugm-3,85.03358,R,ugm-3,373.07010,R,ugm-3
09-01-2016,02:00,211.15209,R,ugm-3,76.87931,R,ugm-3,400.64134,R,ugm-3
09-01-2016,03:00,77.19415,R,ugm-3,60.01425,R,ugm-3,178.37696,R,ugm-3
09-01-2016,04:00,46.26454,R,ugm-3,40.92893,R,ugm-3,111.86691,R,ugm-3
09-01-2016,05:00,36.08532,R,ugm-3,48.80796,R,ugm-3,104.13802,R,ugm-3
09-01-2016,06:00,30.97389,R,ugm-3,30.06880,R,ugm-3,77.56144,R,ugm-3
09-01-2016,07:00,112.18746,R,ugm-3,54.69846,R,ugm-3,226.71683,R,ugm-3
09-01-2016,08:00,118.95906,R,ugm-3,59.70586,R,ugm-3,242.10720,R,ugm-3
09-01-2016,09:00,142.24365,R,ugm-3,71.80099,R,ugm-3,289.90488,R,ugm-3
09-01-2016,10:00,142.81180,R,ugm-3,75.60782,R,ugm-3,294.58285,R,ugm-3
09-01-2016,11:00,205.24010,R,ugm-3,106.39716,R,ugm-3,421.09425,R,ugm-3
09-01-2016,12:00,254.38746,R,ugm-3,85.95540,R,ugm-3,476.01073,R,ugm-3
09-01-2016,13:00,290.16720,R,ugm-3,103.36632,R,ugm-3,548.28315,R,ugm-3
09-01-2016,14:00,248.35863,R,ugm-3,98.45359,R,ugm-3,479.26485,R,ugm-3
09-01-2016,15:00,225.03007,R,ugm-3,79.37544,R,ugm-3,424.41674,R,ugm-3
09-01-2016,16:00,212.84114,R,ugm-3,102.40338,R,ugm-3,428.75525,R,ugm-3
09-01-2016,17:00,236.08271,R,ugm-3,102.63240,R,ugm-3,464.62084,R,ugm-3
09-01-2016,18:00,305.50088,R,ugm-3,119.65269,R,ugm-3,588.08084,R,ugm-3
09-01-2016,19:00,265.26547,R,ugm-3,125.54845,R,ugm-3,532.28318,R,ugm-3
09-01-2016,20:00,311.22380,R,ugm-3,133.38683,R,ugm-3,610.59001,R,ugm-3
09-01-2016,21:00,202.26934,R,ugm-3,109.86787,R,ugm-3,420.00986,R,ugm-3
09-01-2016,22:00,261.29002,R,ugm-3,102.49088,R,ugm-3,503.12998,R,ugm-3
09-01-2016,23:00,278.41482,R,ugm-3,114.20016,R,ugm-3,541.09693,R,ugm-3
09-01-2016,24:00,244.68908,R,ugm-3,129.64025,R,ugm-3,504.82493,R,ugm-3
10-01-2016,01:00,135.48672,R,ugm-3,83.06561,R,ugm-3,290.80901,R,ugm-3
10-01-2016,02:00,152.67077,R,ugm-3,88.53728,R,ugm-3,322.62919,R,ugm-3
10-01-2016,03:00,69.76741,R,ugm-3,64.41826,R,ugm-3,171.39347,R,ugm-3
10-01-2016,04:00,52.07446,R,ugm-3,51.95258,R,ugm-3,131.79898,R,ugm-3
10-01-2016,05:00,34.20658,R,ugm-3,41.65425,R,ugm-3,94.10361,R,ugm-3
10-01-2016,06:00,15.02809,R,ugm-3,23.53427,R,ugm-3,46.57703,R,ugm-3
10-01-2016,07:00,37.00271,R,ugm-3,36.89260,R,ugm-3,93.62931,R,ugm-3
10-01-2016,08:00,74.74788,R,ugm-3,53.93441,R,ugm-3,168.54623,R,ugm-3
10-01-2016,09:00,20.66371,R,ugm-3,54.48760,R,ugm-3,86.17151,R,ugm-3
10-01-2016,10:00,23.85305,R,ugm-3,38.95332,R,ugm-3,75.52749,R,ugm-3
10-01-2016,11:00,27.43530,R,ugm-3,52.44362,R,ugm-3,94.51049,R,ugm-3
10-01-2016,12:00,25.64418,R,ugm-3,48.00327,R,ugm-3,87.32379,R,ugm-3
10-01-2016,13:00,32.85264,R,ugm-3,66.44264,R,ugm-3,116.81598,R,ugm-3
10-01-2016,14:00,49.32230,R,ugm-3,68.51244,R,ugm-3,144.13891,R,ugm-3
10-01-2016,15:00,36.43457,R,ugm-3,53.42521,R,ugm-3,109.29077,R,ugm-3
10-01-2016,16:00,46.48282,R,ugm-3,58.42496,R,ugm-3,129.69762,R,ugm-3
10-01-2016,17:00,42.76929,R,ugm-3,45.13548,R,ugm-3,110.71415,R,ugm-3
10-01-2016,18:00,69.11227,R,ugm-3,52.20217,R,ugm-3,158.17283,R,ugm-3
10-01-2016,19:00,34.90538,R,ugm-3,52.85433,R,ugm-3,106.37516,R,ugm-3
10-01-2016,20:00,36.82809,R,ugm-3,45.76995,R,ugm-3,102.23890,R,ugm-3
10-01-2016,21:00,42.33212,R,ugm-3,42.68748,R,ugm-3,107.59582,R,ugm-3
10-01-2016,22:00,46.22026,R,ugm-3,24.52208,R,ugm-3,95.39215,R,ugm-3
10-01-2016,23:00,47.31258,R,ugm-3,35.79626,R,ugm-3,108.34121,R,ugm-3
10-01-2016,24:00,29.75091,R,ugm-3,33.43528,R,ugm-3,79.05271,R,ugm-3
11-01-2016,01:00,18.28999,R,ugm-3,24.02419,R,ugm-3,52.06845,R,ugm-3
11-01-2016,02:00,,,,,,,,,
11-01-2016,03:00,4.10674,R,ugm-3,10.92372,R,ugm-3,17.22063,R,ugm-3
11-01-2016,04:00,4.28105,R,ugm-3,14.72434,R,ugm-3,21.28852,R,ugm-3
11-01-2016,05:00,6.64031,R,ugm-3,13.41188,R,ugm-3,23.59356,R,ugm-3
11-01-2016,06:00,20.79467,R,ugm-3,29.40469,R,ugm-3,61.28941,R,ugm-3
11-01-2016,07:00,57.71008,R,ugm-3,53.07522,R,ugm-3,141.56277,R,ugm-3
11-01-2016,08:00,157.84020,R,ugm-3,100.15954,R,ugm-3,342.17781,R,ugm-3
11-01-2016,09:00,127.04125,R,ugm-3,77.07662,R,ugm-3,271.87048,R,ugm-3
11-01-2016,10:00,178.85315,R,ugm-3,84.82081,R,ugm-3,359.05849,R,ugm-3
11-01-2016,11:00,160.02422,R,ugm-3,102.77632,R,ugm-3,348.14337,R,ugm-3
11-01-2016,12:00,138.31185,R,ugm-3,88.20307,R,ugm-3,300.27828,R,ugm-3
11-01-2016,13:00,102.66370,R,ugm-3,76.75914,R,ugm-3,234.17463,R,ugm-3
11-01-2016,14:00,121.40501,R,ugm-3,72.43068,R,ugm-3,258.58243,R,ugm-3
11-01-2016,15:00,207.86161,R,ugm-3,77.22436,R,ugm-3,395.94105,R,ugm-3
11-01-2016,16:00,209.60877,R,ugm-3,104.03761,R,ugm-3,425.43323,R,ugm-3
11-01-2016,17:00,349.49346,R,ugm-3,153.42123,R,ugm-3,689.30373,R,ugm-3
11-01-2016,18:00,358.88656,R,ugm-3,132.50948,R,ugm-3,682.79453,R,ugm-3
11-01-2016,19:00,348.75101,R,ugm-3,140.93213,R,ugm-3,675.67621,R,ugm-3
11-01-2016,20:00,154.56323,R,ugm-3,93.65752,R,ugm-3,330.65117,R,ugm-3
11-01-2016,21:00,111.13911,R,ugm-3,81.39122,R,ugm-3,251.80214,R,ugm-3
11-01-2016,22:00,142.11269,R,ugm-3,80.27288,R,ugm-3,298.17596,R,ugm-3
11-01-2016,23:00,125.16250,R,ugm-3,74.60089,R,ugm-3,266.51405,R,ugm-3
11-01-2016,24:00,74.00512,R,ugm-3,48.56411,R,ugm-3,162.03704,R,ugm-3
12-01-2016,01:00,24.46413,R,ugm-3,47.19158,R,ugm-3,84.70271,R,ugm-3
12-01-2016,02:00,8.79554,R,ugm-3,33.70080,R,ugm-3,47.18711,R,ugm-3
12-01-2016,03:00,4.45629,R,ugm-3,20.49005,R,ugm-3,27.32293,R,ugm-3
12-01-2016,04:00,6.16010,R,ugm-3,23.64041,R,ugm-3,33.08577,R,ugm-3
12-01-2016,05:00,10.52846,R,ugm-3,22.29832,R,ugm-3,38.44173,R,ugm-3
12-01-2016,06:00,37.09003,R,ugm-3,40.89403,R,ugm-3,97.76461,R,ugm-3
12-01-2016,07:00,26.95478,R,ugm-3,53.24830,R,ugm-3,94.57838,R,ugm-3
12-01-2016,08:00,70.68512,R,ugm-3,74.80792,R,ugm-3,183.19025,R,ugm-3
12-01-2016,09:00,144.86516,R,ugm-3,96.25660,R,ugm-3,318.38009,R,ugm-3
12-01-2016,10:00,215.20072,R,ugm-3,92.54827,R,ugm-3,422.51811,R,ugm-3
12-01-2016,11:00,269.45952,R,ugm-3,98.37135,R,ugm-3,511.53685,R,ugm-3
12-01-2016,12:00,126.07989,R,ugm-3,82.41536,R,ugm-3,275.73517,R,ugm-3
12-01-2016,13:00,102.53274,R,ugm-3,85.97692,R,ugm-3,243.19159,R,ugm-3
12-01-2016,14:00,94.05765,R,ugm-3,89.54851,R,ugm-3,233.76822,R,ugm-3
12-01-2016,15:00,90.47509,R,ugm-3,79.04076,R,ugm-3,217.76729,R,ugm-3
12-01-2016,16:00,75.44699,R,ugm-3,75.91382,R,ugm-3,191.59760,R,ugm-3
12-01-2016,17:00,82.96104,R,ugm-3,78.01948,R,ugm-3,205.22464,R,ugm-3
12-01-2016,18:00,96.67885,R,ugm-3,79.15646,R,ugm-3,227.39529,R,ugm-3
12-01-2016,19:00,85.27634,R,ugm-3,76.23225,R,ugm-3,206.98748,R,ugm-3
12-01-2016,20:00,36.47854,R,ugm-3,58.23897,R,ugm-3,114.17195,R,ugm-3
12-01-2016,21:00,20.27050,R,ugm-3,44.78453,R,ugm-3,75.86553,R,ugm-3
12-01-2016,22:00,20.31446,R,ugm-3,44.31071,R,ugm-3,75.45912,R,ugm-3
12-01-2016,23:00,21.05723,R,ugm-3,42.01954,R,ugm-3,74.30684,R,ugm-3
12-01-2016,24:00,18.56700,R,ugm-3,34.31216,R,ugm-3,62.78116,R,ugm-3
13-01-2016,01:00,9.84452,R,ugm-3,24.68018,R,ugm-3,39.77490,R,ugm-3
13-01-2016,02:00,2.32996,R,ugm-3,24.08921,R,ugm-3,27.66176,R,ugm-3
13-01-2016,03:00,1.22329,R,ugm-3,13.85367,R,ugm-3,15.72936,R,ugm-3
13-01-2016,04:00,26.16835,R,ugm-3,31.16291,R,ugm-3,58.93943,R,ugm-3
13-01-2016,05:00,11.40251,R,ugm-3,32.89022,R,ugm-3,50.37382,R,ugm-3
13-01-2016,06:00,59.93807,R,ugm-3,53.32002,R,ugm-3,145.22378,R,ugm-3
13-01-2016,07:00,206.37576,R,ugm-3,86.55306,R,ugm-3,402.99148,R,ugm-3
13-01-2016,08:00,271.94975,R,ugm-3,112.85854,R,ugm-3,529.84235,R,ugm-3
13-01-2016,09:00,301.04490,R,ugm-3,116.38328,R,ugm-3,577.97902,R,ugm-3
13-01-2016,10:00,416.81461,R,ugm-3,131.75786,R,ugm-3,770.86468,R,ugm-3
13-01-2016,11:00,325.59706,R,ugm-3,131.95868,R,ugm-3,631.20054,R,ugm-3
13-01-2016,12:00,120.35665,R,ugm-3,82.85189,R,ugm-3,267.39619,R,ugm-3
13-01-2016,13:00,303.36020,R,ugm-3,124.35936,R,ugm-3,589.50518,R,ugm-3
13-01-2016,14:00,348.31383,R,ugm-3,150.89051,R,ugm-3,684.96427,R,ugm-3
13-01-2016,15:00,299.16646,R,ugm-3,124.00937,R,ugm-3,582.72488,R,ugm-3
13-01-2016,16:00,311.31142,R,ugm-3,138.67681,R,ugm-3,616.01434,R,ugm-3
13-01-2016,17:00,292.78840,R,ugm-3,103.34720,R,ugm-3,552.28314,R,ugm-3
13-01-2016,18:00,402.35403,R,ugm-3,108.91257,R,ugm-3,725.84682,R,ugm-3
13-01-2016,19:00,366.22568,R,ugm-3,97.25636,R,ugm-3,658.79457,R,ugm-3
13-01-2016,20:00,302.39915,R,ugm-3,116.67971,R,ugm-3,580.35195,R,ugm-3
13-01-2016,21:00,203.18673,R,ugm-3,102.49422,R,ugm-3,414.04286,R,ugm-3
13-01-2016,22:00,186.93535,R,ugm-3,101.78564,R,ugm-3,388.41584,R,ugm-3
13-01-2016,23:00,186.32386,R,ugm-3,98.11268,R,ugm-3,383.80528,R,ugm-3
13-01-2016,24:00,182.26078,R,ugm-3,100.20687,R,ugm-3,379.66950,R,ugm-3
14-01-2016,01:00,76.48069,R,ugm-3,67.50424,R,ugm-3,184.77300,R,ugm-3
14-01-2016,02:00,20.62036,R,ugm-3,43.86446,R,ugm-3,75.48191,R,ugm-3
14-01-2016,03:00,11.44585,R,ugm-3,24.34899,R,ugm-3,41.89905,R,ugm-3
14-01-2016,04:00,14.72251,R,ugm-3,35.93540,R,ugm-3,58.50959,R,ugm-3
14-01-2016,05:00,9.39248,R,ugm-3,31.22634,R,ugm-3,45.62795,R,ugm-3
14-01-2016,06:00,33.37650,R,ugm-3,42.11325,R,ugm-3,93.28984,R,ugm-3
14-01-2016,07:00,101.74600,R,ugm-3,65.48783,R,ugm-3,221.49619,R,ugm-3
14-01-2016,08:00,128.30788,R,ugm-3,72.96474,R,ugm-3,269.70075,R,ugm-3
14-01-2016,09:00,128.48250,R,ugm-3,90.86718,R,ugm-3,287.87093,R,ugm-3
14-01-2016,10:00,153.86412,R,ugm-3,91.20378,R,ugm-3,327.12548,R,ugm-3
14-01-2016,11:00,130.09900,R,ugm-3,98.62571,R,ugm-3,298.10807,R,ugm-3
14-01-2016,12:00,,,,,,,,,
14-01-2016,13:00,69.37441,R,ugm-3,68.90801,R,ugm-3,175.28063,R,ugm-3
14-01-2016,14:00,73.65587,R,ugm-3,74.45649,R,ugm-3,187.39392,R,ugm-3
14-01-2016,15:00,90.25650,R,ugm-3,59.71447,R,ugm-3,198.10583,R,ugm-3
14-01-2016,16:00,45.30287,R,ugm-3,69.65851,R,ugm-3,139.12194,R,ugm-3
14-01-2016,17:00,36.25995,R,ugm-3,58.77782,R,ugm-3,114.37563,R,ugm-3
14-01-2016,18:00,42.33243,R,ugm-3,61.33148,R,ugm-3,126.24030,R,ugm-3
14-01-2016,19:00,41.54632,R,ugm-3,58.19785,R,ugm-3,121.90132,R,ugm-3
14-01-2016,20:00,29.40073,R,ugm-3,50.10846,R,ugm-3,95.18895,R,ugm-3
14-01-2016,21:00,41.41504,R,ugm-3,61.44958,R,ugm-3,124.95175,R,ugm-3
14-01-2016,22:00,56.18089,R,ugm-3,86.20020,R,ugm-3,172.34303,R,ugm-3
14-01-2016,23:00,19.26580,R,ugm-3,54.32600,R,ugm-3,83.86647,R,ugm-3
14-01-2016,24:00,43.59937,R,ugm-3,59.72785,R,ugm-3,126.57929,R,ugm-3
15-01-2016,01:00,48.34660,R,ugm-3,48.71966,R,ugm-3,122.85008,R,ugm-3
15-01-2016,02:00,8.27168,R,ugm-3,42.09795,R,ugm-3,54.78101,R,ugm-3
15-01-2016,03:00,3.10172,R,ugm-3,25.68535,R,ugm-3,30.44126,R,ugm-3
15-01-2016,04:00,3.53859,R,ugm-3,22.77883,R,ugm-3,28.20459,R,ugm-3
15-01-2016,05:00,4.54298,R,ugm-3,27.00068,R,ugm-3,33.96648,R,ugm-3
15-01-2016,06:00,54.47739,R,ugm-3,58.98102,R,ugm-3,142.51185,R,ugm-3
15-01-2016,07:00,165.31059,R,ugm-3,76.77205,R,ugm-3,330.24476,R,ugm-3